Time,TemperatureF,DewpointF,PressureIn,WindDirection,WindDirectionDegrees,WindSpeedMPH,WindSpeedGustMPH,Humidity,HourlyPrecipIn,Conditions,Clouds,dailyrainin,SoftwareType,DateUTC
2013-01-20 00:00:00,29.0,-3.0,-100.00,North,-999,-999.0,-999.0,24,-99.99,,,-99.99,,2013-01-20 07:00:00,
2013-01-20 00:52:00,29.0,-3.0,-100.00,North,-999,-999.0,-999.0,24,-99.99,,,-99.99,,2013-01-20 07:52:00,
2013-01-20 01:00:00,29.0,-1.0,-100.00,North,-999,-999.0,-999.0,26,-99.99,,,-99.99,,2013-01-20 08:00:00,
2013-01-20 01:52:00,29.0,-1.0,-100.00,North,-999,-999.0,-999.0,26,-99.99,,,-99.99,,2013-01-20 08:52:00,
2013-01-20 02:00:00,28.0,0.0,-100.00,North,-999,-999.0,-999.0,28,-99.99,,,-99.99,,2013-01-20 09:00:00,
2013-01-20 02:52:00,28.0,0.0,-100.00,North,-999,-999.0,-999.0,28,-99.99,,,-99.99,,2013-01-20 09:52:00,
2013-01-20 03:00:00,27.0,1.0,-100.00,North,-999,-999.0,-999.0,32,-99.99,,,-99.99,,2013-01-20 10:00:00,
2013-01-20 03:52:00,27.0,1.0,-100.00,North,-999,-999.0,-999.0,32,-99.99,,,-99.99,,2013-01-20 10:52:00,
2013-01-20 04:00:00,25.0,2.0,-100.00,North,-999,-999.0,-999.0,36,-99.99,,,0.00,,2013-01-20 11:00:00,
2013-01-20 04:53:00,25.0,2.0,-100.00,North,-999,-999.0,-999.0,36,-99.99,,,0.00,,2013-01-20 11:53:00,
2013-01-20 05:00:00,27.0,5.0,-100.00,North,-999,-999.0,-999.0,38,-99.99,,,-99.99,,2013-01-20 12:00:00,
2013-01-20 05:53:00,27.0,5.0,-100.00,North,-999,-999.0,-999.0,38,-99.99,,,-99.99,,2013-01-20 12:53:00,
2013-01-20 06:00:00,26.0,5.0,-100.00,North,-999,-999.0,-999.0,39,-99.99,,,-99.99,,2013-01-20 13:00:00,
2013-01-20 06:53:00,26.0,5.0,-100.00,North,-999,-999.0,-999.0,39,-99.99,,,-99.99,,2013-01-20 13:53:00,
2013-01-20 07:00:00,27.0,6.0,-100.00,North,-999,-999.0,-999.0,41,-99.99,,,0.00,,2013-01-20 14:00:00,
2013-01-20 07:53:00,27.0,6.0,-100.00,North,-999,-999.0,-999.0,41,-99.99,,,0.00,,2013-01-20 14:53:00,
2013-01-20 08:00:00,13.0,2.0,-100.00,North,-999,-999.0,-999.0,61,-99.99,,,-99.99,,2013-01-20 15:00:00,
2013-01-20 08:53:00,13.0,2.0,-100.00,North,-999,-999.0,-999.0,61,-99.99,,,-99.99,,2013-01-20 15:53:00,
2013-01-20 09:00:00,12.0,10.0,-100.00,North,-999,-999.0,-999.0,93,-99.99,,,-99.99,,2013-01-20 16:00:00,
2013-01-20 10:00:00,26.0,21.0,-100.00,North,-999,-999.0,-999.0,79,-99.99,,,-99.99,,2013-01-20 17:00:00,
2013-01-20 10:53:00,26.0,21.0,-100.00,North,-999,-999.0,-999.0,79,-99.99,,,-99.99,,2013-01-20 17:53:00,
2013-01-20 11:00:00,29.0,7.0,-100.00,North,-999,-999.0,-999.0,38,-99.99,,,-99.99,,2013-01-20 18:00:00,
2013-01-20 11:53:00,29.0,7.0,-100.00,North,-999,-999.0,-999.0,38,-99.99,,,-99.99,,2013-01-20 18:53:00,
2013-01-20 12:00:00,30.0,7.0,-100.00,North,-999,-999.0,-999.0,37,-99.99,,,-99.99,,2013-01-20 19:00:00,
2013-01-20 12:53:00,30.0,7.0,-100.00,North,-999,-999.0,-999.0,37,-99.99,,,-99.99,,2013-01-20 19:53:00,
2013-01-20 13:00:00,30.0,8.0,-100.00,North,-999,-999.0,-999.0,39,-99.99,,,-99.99,,2013-01-20 20:00:00,
2013-01-20 13:53:00,30.0,8.0,-100.00,North,-999,-999.0,-999.0,39,-99.99,,,-99.99,,2013-01-20 20:53:00,
2013-01-20 14:00:00,30.0,8.0,-100.00,North,-999,-999.0,-999.0,38,-99.99,,,-99.99,,2013-01-20 21:00:00,
2013-01-20 14:53:00,30.0,8.0,-100.00,North,-999,-999.0,-999.0,38,-99.99,,,-99.99,,2013-01-20 21:53:00,
2013-01-20 15:00:00,28.0,7.0,-100.00,North,-999,-999.0,-999.0,40,-99.99,,,-99.99,,2013-01-20 22:00:00,
2013-01-20 15:53:00,28.0,7.0,-100.00,North,-999,-999.0,-999.0,40,-99.99,,,-99.99,,2013-01-20 22:53:00,
2013-01-20 16:00:00,27.0,8.0,-100.00,North,-999,-999.0,-999.0,44,-99.99,,,0.00,,2013-01-20 23:00:00,
2013-01-20 16:53:00,27.0,8.0,-100.00,North,-999,-999.0,-999.0,44,-99.99,,,0.00,,2013-01-20 23:53:00,
2013-01-20 17:00:00,25.0,7.0,-100.00,North,-999,-999.0,-999.0,46,-99.99,,,-99.99,,2013-01-21 00:00:00,
2013-01-20 17:53:00,25.0,7.0,-100.00,North,-999,-999.0,-999.0,46,-99.99,,,-99.99,,2013-01-21 00:53:00,
2013-01-20 18:00:00,25.0,8.0,-100.00,North,-999,-999.0,-999.0,47,-99.99,,,-99.99,,2013-01-21 01:00:00,
2013-01-20 18:53:00,25.0,8.0,-100.00,North,-999,-999.0,-999.0,47,-99.99,,,-99.99,,2013-01-21 01:53:00,
2013-01-20 19:00:00,25.0,7.0,-100.00,North,-999,-999.0,-999.0,46,-99.99,,,0.00,,2013-01-21 02:00:00,
2013-01-20 19:53:00,25.0,7.0,-100.00,North,-999,-999.0,-999.0,46,-99.99,,,0.00,,2013-01-21 02:53:00,
2013-01-20 20:00:00,24.0,8.0,-100.00,North,-999,-999.0,-999.0,49,-99.99,,,-99.99,,2013-01-21 03:00:00,
2013-01-20 20:53:00,24.0,8.0,-100.00,North,-999,-999.0,-999.0,49,-99.99,,,-99.99,,2013-01-21 03:53:00,
2013-01-20 21:00:00,24.0,8.0,-100.00,North,-999,-999.0,-999.0,50,-99.99,,,-99.99,,2013-01-21 04:00:00,
2013-01-20 21:53:00,24.0,8.0,-100.00,North,-999,-999.0,-999.0,50,-99.99,,,-99.99,,2013-01-21 04:53:00,
2013-01-20 22:00:00,24.0,9.0,-100.00,North,-999,-999.0,-999.0,50,-99.99,,,0.00,,2013-01-21 05:00:00,
2013-01-20 22:53:00,24.0,9.0,-100.00,North,-999,-999.0,-999.0,50,-99.99,,,0.00,,2013-01-21 05:53:00,
2013-01-20 23:00:00,25.0,6.0,-100.00,North,-999,-999.0,-999.0,44,-99.99,,,-99.99,,2013-01-21 06:00:00,
2013-01-20 23:53:00,25.0,6.0,-100.00,North,-999,-999.0,-999.0,44,-99.99,,,-99.99,,2013-01-21 06:53:00,